Location: Chagrin Falls Park
(41.4139°N, 81.3865°W)
Time: 06:14:20
(UTC+00:00)

X-37B - Pass Details

Date: 07 August 2021
Orbit: 381 x 393 km, 45.0° (Epoch: 29 August)

Event Time Altitude Azimuth Distance (km) Brightness Sun altitude
Exits shadow 08:42:22 26° 301° (WNW) 802 2.0 -17.3°
Maximum altitude 08:43:43 41° 355° (N) 564 1.6 -17.2°
Drops below altitude 10° 08:46:43 10° 68° (ENE) 1,398 4.5 -16.7°
Sets 08:48:51 0° 76° (ENE) 2,251 5.6 -16.4°
